Track IRIDIUM 160 now! 10-day predictions IRIDIUM 160 is classified as:
1 43569U 18061A 21109.75220303 .00000069 00000-0 17396-4 0 9993 2 43569 86.3931 124.3188 0002277 97.9610 262.1845 14.34220294143272